Location: Calvatone
(45.1167°N, 10.4333°E)
Time: 11:18:52
(UTC+00:00)

Cosmos 1992 Rocket - Pass Details

Date: 28 January 2023
Orbit: 758 x 764 km, 74.0° (Epoch: 25 March)

Event Time Altitude Azimuth Distance (km) Brightness Sun altitude
Rises 16:40:30 0° 339° (NNW) 3,229 7.2 -4.2°
Reaches altitude 10° 16:42:53 10° 340° (NNW) 2,299 6.5 -4.6°
Maximum altitude 16:48:07 84° 69° (ENE) 769 4.0 -5.5°
Drops below altitude 10° 16:53:18 10° 158° (SSE) 2,281 6.4 -6.3°
Sets 16:55:39 0° 159° (SSE) 3,203 7.2 -6.7°
